When you browse on this site, cookies collect data to enhance your experience and personalize the content and advertising you see.
Visit our Privacy Policy to learn more. By continuing to use the site, you agree to this use of cookies and data.
  • In Switzerland
  • List of Countries
  • For 7 days
  • Water Temperature
  • Satellite Maps
  • Weather Map
  • Weather Widgets
  • user-avatar
    Login

    Hourly Weather Mieczkow

    Today, 18 February, Monday

    Time Temperature Precipitation Wind Pressure Humidity
    00:00 +5°C° 0 mm 1 mps 754 mmHg 71%
    01:00 +5°C° 0 mm 1 mps 754 mmHg 73%
    02:00 +5°C° 0 mm 1 mps 754 mmHg 75%
    03:00 +4°C° 0 mm 1 mps 754 mmHg 76%
    04:00 +4°C° 0 mm 1 mps 754 mmHg 78%
    05:00 +3°C° 0 mm 2 mps 754 mmHg 79%
    06:00 +2°C° 0 mm 2 mps 753 mmHg 79%
    07:00 +2°C° 0 mm 2 mps 753 mmHg 79%
    08:00 +3°C° 0 mm 2 mps 753 mmHg 74%
    09:00 +6°C° 0 mm 1 mps 753 mmHg 68%
    10:00 +7°C° 0 mm 1 mps 753 mmHg 63%
    11:00 +8°C° 0 mm 1 mps 753 mmHg 57%
    12:00 +9°C° 0 mm 1 mps 753 mmHg 52%
    13:00 +11°C° 0 mm 1 mps 752 mmHg 46%
    14:00 +11°C° 0 mm 1 mps 752 mmHg 48%
    15:00 +10°C° 0 mm 1 mps 752 mmHg 50%
    16:00 +10°C° 0 mm 1 mps 752 mmHg 51%
    17:00 +8°C° 0 mm 2 mps 751 mmHg 55%
    18:00 +7°C° 0 mm 2 mps 751 mmHg 58%
    19:00 +6°C° 0 mm 2 mps 751 mmHg 61%
    20:00 +6°C° 0 mm 2 mps 751 mmHg 64%
    21:00 +5°C° 0 mm 2 mps 751 mmHg 68%
    22:00 +5°C° 0 mm 2 mps 751 mmHg 71%
    23:00 +3°C° 0 mm 3 mps 750 mmHg 73%

    Tomorrow, 19 February, Tuesday

    Time Temperature Precipitation Wind Pressure Humidity
    00:00 +3°C° 0 mm 3 mps 750 mmHg 75%
    01:00 +3°C° 0 mm 3 mps 750 mmHg 78%
    02:00 +2°C° 0 mm 3 mps 750 mmHg 78%
    03:00 +2°C° 0 mm 3 mps 750 mmHg 78%
    04:00 +1°C° 0 mm 3 mps 749 mmHg 79%
    05:00 +1°C° 0 mm 3 mps 749 mmHg 80%
    06:00 +1°C° 0 mm 3 mps 749 mmHg 81%
    07:00 +1°C° 0 mm 3 mps 749 mmHg 82%
    08:00 +1°C° 0 mm 4 mps 749 mmHg 76%
    09:00 +4°C° 0 mm 4 mps 748 mmHg 71%
    10:00 +5°C° 0 mm 4 mps 748 mmHg 65%
    11:00 +6°C° 0 mm 4 mps 748 mmHg 61%
    12:00 +8°C° 0 mm 4 mps 748 mmHg 57%
    13:00 +10°C° 0 mm 4 mps 747 mmHg 53%
    14:00 +10°C° 0 mm 4 mps 747 mmHg 54%
    15:00 +10°C° 0 mm 4 mps 747 mmHg 55%
    16:00 +10°C° 0 mm 3 mps 747 mmHg 57%
    17:00 +8°C° 0 mm 4 mps 747 mmHg 61%
    18:00 +7°C° 0 mm 4 mps 747 mmHg 66%
    19:00 +6°C° 0 mm 4 mps 747 mmHg 71%
    20:00 +5°C° 0.6 mm 4 mps 748 mmHg 77%
    21:00 +5°C° 0.6 mm 5 mps 748 mmHg 83%
    22:00 +5°C° 0.6 mm 5 mps 748 mmHg 89%
    23:00 +5°C° 0.2 mm 5 mps 749 mmHg 89%

    Day after tomorrow, 20 February, Wednesday

    Time Temperature Precipitation Wind Pressure Humidity
    00:00 +4°C° 0.2 mm 4 mps 749 mmHg 89%
    01:00 +4°C° 0.2 mm 4 mps 749 mmHg 89%
    02:00 +3°C° 0 mm 4 mps 749 mmHg 90%
    03:00 +3°C° 0 mm 4 mps 750 mmHg 91%
    04:00 +1°C° 0 mm 5 mps 750 mmHg 92%
    05:00 +1°C° 0 mm 5 mps 750 mmHg 92%
    06:00 +1°C° 0 mm 5 mps 750 mmHg 93%
    07:00 +1°C° 0 mm 5 mps 751 mmHg 93%
    08:00 +2°C° 0 mm 5 mps 751 mmHg 88%
    09:00 +3°C° 0 mm 5 mps 751 mmHg 83%
    10:00 +3°C° 0 mm 6 mps 752 mmHg 79%
    11:00 +4°C° 0.1 mm 6 mps 752 mmHg 74%
    12:00 +5°C° 0.1 mm 6 mps 752 mmHg 69%
    13:00 +5°C° 0.1 mm 6 mps 752 mmHg 64%
    14:00 +5°C° 0 mm 6 mps 752 mmHg 64%
    15:00 +5°C° 0 mm 6 mps 752 mmHg 64%
    16:00 +5°C° 0 mm 6 mps 752 mmHg 65%
    17:00 +5°C° 0 mm 5 mps 752 mmHg 69%
    18:00 +5°C° 0 mm 4 mps 753 mmHg 74%
    19:00 +4°C° 0 mm 3 mps 753 mmHg 79%
    20:00 +4°C° 0 mm 3 mps 753 mmHg 80%
    21:00 +4°C° 0 mm 3 mps 754 mmHg 81%
    22:00 +4°C° 0 mm 3 mps 754 mmHg 82%
    23:00 +4°C° 0 mm 3 mps 754 mmHg 83%

    21 February, Thursday

    Time Temperature Precipitation Wind Pressure Humidity
    00:00 +3°C° 0 mm 3 mps 754 mmHg 84%
    01:00 +3°C° 0 mm 3 mps 754 mmHg 85%
    02:00 +3°C° 0 mm 3 mps 754 mmHg 86%
    03:00 +2°C° 0 mm 3 mps 754 mmHg 87%
    04:00 +2°C° 0 mm 3 mps 754 mmHg 89%
    05:00 +2°C° 0 mm 3 mps 754 mmHg 89%
    06:00 +2°C° 0 mm 3 mps 755 mmHg 90%
    07:00 +2°C° 0 mm 3 mps 755 mmHg 91%
    08:00 +1°C° 0.1 mm 4 mps 755 mmHg 87%
    09:00 +3°C° 0.1 mm 4 mps 755 mmHg 84%
    10:00 +4°C° 0.1 mm 4 mps 755 mmHg 81%
    11:00 +5°C° 0 mm 4 mps 755 mmHg 77%
    12:00 +6°C° 0 mm 4 mps 755 mmHg 73%
    13:00 +6°C° 0 mm 4 mps 755 mmHg 69%
    14:00 +7°C° 0 mm 4 mps 755 mmHg 69%
    15:00 +7°C° 0 mm 4 mps 755 mmHg 69%
    16:00 +8°C° 0 mm 3 mps 755 mmHg 70%
    17:00 +7°C° 0.2 mm 3 mps 755 mmHg 75%
    18:00 +7°C° 0.2 mm 3 mps 755 mmHg 81%
    19:00 +5°C° 0.2 mm 3 mps 755 mmHg 86%
    20:00 +5°C° 0.1 mm 3 mps 756 mmHg 87%
    21:00 +5°C° 0.1 mm 3 mps 756 mmHg 89%
    22:00 +5°C° 0.1 mm 3 mps 756 mmHg 90%
    23:00 +5°C° 0 mm 2 mps 757 mmHg 92%

    22 February, Friday

    Time Temperature Precipitation Wind Pressure Humidity
    00:00 +5°C° 0 mm 2 mps 757 mmHg 94%
    01:00 +4°C° 0 mm 2 mps 757 mmHg 96%
    02:00 +4°C° 0 mm 2 mps 757 mmHg 96%
    03:00 +5°C° 0 mm 2 mps 757 mmHg 97%
    04:00 +5°C° 0 mm 2 mps 758 mmHg 97%
    05:00 +5°C° 0 mm 2 mps 758 mmHg 97%
    06:00 +5°C° 0 mm 2 mps 759 mmHg 97%
    07:00 +5°C° 0 mm 2 mps 760 mmHg 97%
    08:00 +5°C° 0 mm 2 mps 760 mmHg 95%
    09:00 +4°C° 0 mm 3 mps 761 mmHg 93%
    10:00 +5°C° 0 mm 3 mps 761 mmHg 91%
    11:00 +5°C° 0 mm 3 mps 762 mmHg 89%
    12:00 +7°C° 0 mm 3 mps 762 mmHg 86%
    13:00 +7°C° 0 mm 3 mps 763 mmHg 83%
    14:00 +7°C° 0 mm 3 mps 763 mmHg 82%
    15:00 +7°C° 0 mm 3 mps 763 mmHg 80%
    16:00 +7°C° 0 mm 3 mps 763 mmHg 79%
    17:00 +5°C° 0 mm 3 mps 764 mmHg 77%
    18:00 +6°C° 0 mm 2 mps 765 mmHg 75%
    19:00 +5°C° 0 mm 2 mps 765 mmHg 73%
    20:00 +4°C° 0 mm 2 mps 765 mmHg 68%
    21:00 +4°C° 0 mm 2 mps 766 mmHg 63%
    22:00 +3°C° 0 mm 2 mps 766 mmHg 57%
    23:00 +2°C° 0 mm 2 mps 766 mmHg 57%

    23 February, Saturday

    Time Temperature Precipitation Wind Pressure Humidity
    00:00 +2°C° 0 mm 2 mps 766 mmHg 56%
    01:00 +1°C° 0 mm 2 mps 767 mmHg 56%
    02:00 +1°C° 0 mm 2 mps 767 mmHg 56%
    03:00 +2°C° 0 mm 1 mps 767 mmHg 57%
    04:00 +2°C° 0 mm 1 mps 766 mmHg 57%
    05:00 +2°C° 0 mm 1 mps 766 mmHg 56%
    06:00 +2°C° 0 mm 1 mps 766 mmHg 56%
    07:00 +2°C° 0 mm 1 mps 766 mmHg 55%
    08:00 +3°C° 0 mm 1 mps 766 mmHg 52%
    09:00 +4°C° 0 mm 1 mps 767 mmHg 49%
    10:00 +6°C° 0 mm 1 mps 767 mmHg 47%
    11:00 +6°C° 0 mm 2 mps 766 mmHg 50%
    12:00 +7°C° 0 mm 2 mps 766 mmHg 53%
    13:00 +8°C° 0 mm 3 mps 765 mmHg 56%
    14:00 +8°C° 0 mm 3 mps 765 mmHg 61%
    15:00 +8°C° 0 mm 3 mps 765 mmHg 66%
    16:00 +7°C° 0 mm 4 mps 764 mmHg 72%
    17:00 +7°C° 0 mm 3 mps 764 mmHg 78%
    18:00 +5°C° 0 mm 3 mps 764 mmHg 83%
    19:00 +4°C° 0 mm 3 mps 764 mmHg 89%
    20:00 +4°C° 0 mm 3 mps 764 mmHg 90%
    21:00 +4°C° 0 mm 3 mps 764 mmHg 90%
    22:00 +3°C° 0 mm 3 mps 764 mmHg 90%
    23:00 +3°C° 0 mm 3 mps 764 mmHg 91%
    Show more